Weather History for Canberra, CT

Change the Weather History Date:

Wednesday, August 14, 2013

  Actual Average Record
Temperature  
Mean Temperature 50 °F -  
Max Temperature 60 °F 58 °F - ()
Min Temperature 41 °F 36 °F - ()
Degree Days  
Heating Degree Days 14    
Moisture  
Dew Point 37 °F    
Average Humidity 59    
Maximum Humidity 87    
Minimum Humidity 26    
Precipitation  
Precipitation 0.04 in 0.07 in - ()
Sea Level Pressure  
Sea Level Pressure 29.82 in    
Wind  
Wind Speed 17 mph ()    
Max Wind Speed 26 mph    
Max Gust Speed 37 mph    
Visibility 6.1 miles    
Events Rain    
T = Trace of Precipitation, MM = Missing Value Source: Averaged Metar Reports

Daily Weather History Graph

Daily Weather History Graph

Search for Another Location

Airport:

Trip Planner

Search our weather history database for the weather conditions in past years. The results will help you decide how hot, cold, wet, or windy it might be!

Date:

Astronomy

Aug. 14, 2013 Rise Set
Actual Time 6:45 AM AEST 5:30 PM AEST
Civil Twilight 6:19 AM AEST 5:56 PM AEST
Nautical Twilight 5:49 AM AEST 6:26 PM AEST
Astronomical Twilight 5:19 AM AEST 6:56 PM AEST
Moon 10:41 AM AEST (8/14) No Moon Set
Length of Visible Light 11h 37m
Length of Day
10h 44m
Waxing Crescent, 46% of the Moon is Illuminated
Aug 14
Waxing Crescent
Aug 14
First Quarter
Aug 21
Full
Aug 28
Last Quarter
Sep 5
New

Hourly Weather History & Observations

Time (AEST) Temp. Windchill Dew Point Humidity Pressure Visibility Wind Dir Wind Speed Gust Speed Precip Events Conditions
12:00 AM 46.4 °F 41.1 °F 37.4 °F 71% 29.92 in 6.2 mi NW 11.5 mph - N/A   Scattered Clouds
12:30 AM 46.4 °F 41.9 °F 37.4 °F 71% 29.92 in 6.2 mi NNW 9.2 mph - N/A   Unknown
1:00 AM 47 °F - 37 °F 60% 29.94 in - NNW 13.8 mph - -  
1:00 AM 46.4 °F 40.4 °F 37.4 °F 71% 29.92 in 6.2 mi NNW 13.8 mph - N/A   Scattered Clouds
1:30 AM 46.4 °F 40.4 °F 37.4 °F 71% 29.89 in 6.2 mi NW 13.8 mph - N/A   Scattered Clouds
2:00 AM 46.4 °F 41.1 °F 37.4 °F 71% 29.89 in 6.2 mi North 11.5 mph - N/A   Unknown
2:30 AM 46.4 °F 41.1 °F 37.4 °F 71% 29.89 in 6.2 mi North 11.5 mph - N/A   Unknown
3:00 AM 44.6 °F 38.8 °F 37.4 °F 76% 29.89 in 6.2 mi North 11.5 mph - N/A   Unknown
3:30 AM 44.6 °F 38.4 °F 39.2 °F 81% 29.89 in 6.2 mi North 12.7 mph - N/A   Unknown
4:00 AM 44.6 °F 38.1 °F 39.2 °F 81% 29.86 in 6.2 mi North 13.8 mph - N/A   Unknown
4:30 AM 46.4 °F 39.5 °F 39.2 °F 76% 29.86 in 6.2 mi NNW 17.3 mph - N/A   Partly Cloudy
5:00 AM 44.6 °F 36.9 °F 39.2 °F 81% 29.86 in 6.2 mi NNW 18.4 mph - N/A   Partly Cloudy
5:30 AM 44.6 °F 36.6 °F 39.2 °F 81% 29.86 in 6.2 mi NNW 19.6 mph - N/A   Partly Cloudy
6:00 AM 44.6 °F 36.4 °F 39.2 °F 81% 29.86 in 6.2 mi NNW 20.7 mph - N/A   Partly Cloudy
6:30 AM 44.6 °F 36.4 °F 39.2 °F 81% 29.86 in 6.2 mi NNW 20.7 mph - N/A   Partly Cloudy
7:00 AM 44 °F - 39 °F 76% 29.90 in - NNW 19.6 mph - -  
7:00 AM 44.6 °F 36.6 °F 39.2 °F 81% 29.86 in 6.2 mi NNW 19.6 mph - N/A   Partly Cloudy
7:30 AM 44.6 °F 37.2 °F 39.2 °F 81% 29.86 in 6.2 mi NNW 17.3 mph - N/A   Partly Cloudy
8:00 AM 46.4 °F 39.5 °F 41.0 °F 81% 29.86 in 6.2 mi NNW 17.3 mph - N/A   Partly Cloudy
8:30 AM 50.0 °F - 41.0 °F 71% 29.86 in 6.2 mi NNW 15.0 mph - N/A   Partly Cloudy
9:00 AM 51.8 °F - 37.4 °F 58% 29.86 in 6.2 mi NNW 19.6 mph - N/A   Partly Cloudy
9:30 AM 53.6 °F - 37.4 °F 54% 29.86 in 6.2 mi NNW 20.7 mph - N/A   Partly Cloudy
10:00 AM 55.4 °F - 39.2 °F 54% 29.86 in 6.2 mi NNW 20.7 mph - N/A   Partly Cloudy
10:30 AM 57.2 °F - 37.4 °F 48% 29.83 in 6.2 mi NW 21.9 mph - N/A   Partly Cloudy
11:00 AM 57.2 °F - 37.4 °F 48% 29.83 in 6.2 mi NNW 21.9 mph - N/A   Partly Cloudy
11:20 AM 59.0 °F - 37.4 °F 45% 29.83 in 6.2 mi NW 21.9 mph 33.4 mph N/A   Partly Cloudy
11:30 AM 59.0 °F - 37.4 °F 45% 29.83 in 6.2 mi NW 25.3 mph - N/A   Partly Cloudy
12:00 PM 60 °F - 35 °F 28% 29.85 in - NW 25.3 mph - -  
12:00 PM 59.0 °F - 35.6 °F 42% 29.80 in 6.2 mi NW 25.3 mph - N/A   Partly Cloudy
12:22 PM 60.8 °F - 33.8 °F 36% 29.80 in 6.2 mi NW 25.3 mph 36.8 mph N/A   Partly Cloudy
12:30 PM 60.8 °F - 33.8 °F 36% 29.80 in 6.2 mi NW 25.3 mph 36.8 mph N/A   Partly Cloudy
1:00 PM 60 °F - 35 °F 27% 29.82 in - NW 26.5 mph - -  
1:00 PM 60.8 °F - 35.6 °F 39% 29.77 in 6.2 mi NW 26.5 mph - N/A   Partly Cloudy
1:16 PM 60.8 °F - 35.6 °F 39% 29.77 in 6.2 mi NW 23.0 mph 34.5 mph N/A   Partly Cloudy
1:30 PM 60.8 °F - 30.2 °F 31% 29.77 in 6.2 mi NW 25.3 mph - N/A   Partly Cloudy
1:34 PM 60.8 °F - 32.0 °F 34% 29.77 in 6.2 mi NW 24.2 mph 35.7 mph N/A   Partly Cloudy
2:00 PM 60.8 °F - 32.0 °F 34% 29.77 in 6.2 mi NW 26.5 mph - N/A   Partly Cloudy
2:30 PM 60.8 °F - 32.0 °F 34% 29.77 in 6.2 mi NW 24.2 mph - N/A   Partly Cloudy
3:00 PM 60 °F - 34 °F 26% 29.79 in - NW 24.2 mph - -  
3:00 PM 60.8 °F - 33.8 °F 36% 29.74 in 6.2 mi NW 24.2 mph - N/A   Partly Cloudy
3:30 PM 59.0 °F - 35.6 °F 42% 29.74 in 6.2 mi NW 26.5 mph - N/A   Partly Cloudy
4:00 PM 58 °F - 35 °F 30% 29.78 in - NW 24.2 mph - -  
4:00 PM 59.0 °F - 35.6 °F 42% 29.74 in 6.2 mi NW 24.2 mph - N/A   Partly Cloudy
4:12 PM 57.2 °F - 35.6 °F 44% 29.74 in 6.2 mi NW 20.7 mph 33.4 mph N/A   Partly Cloudy
4:30 PM 57.2 °F - 35.6 °F 44% 29.74 in 6.2 mi NNW 25.3 mph - N/A   Partly Cloudy
4:44 PM 57.2 °F - 37.4 °F 48% 29.74 in 6.2 mi NW 20.7 mph 33.4 mph N/A   Partly Cloudy
5:00 PM 55.4 °F - 37.4 °F 51% 29.74 in 6.2 mi NW 19.6 mph - N/A   Scattered Clouds
5:15 PM 55.4 °F - 37.4 °F 51% 29.74 in 6.2 mi NW 20.7 mph 32.2 mph N/A   Partly Cloudy
5:30 PM 53.6 °F - 37.4 °F 54% 29.74 in 6.2 mi NNW 23.0 mph 34.5 mph N/A   Partly Cloudy
6:00 PM 54 °F - 37 °F 41% 29.78 in - NNW 23.0 mph - -  
6:00 PM 53.6 °F - 37.4 °F 54% 29.74 in 6.2 mi NNW 23.0 mph - N/A   Partly Cloudy
6:30 PM 53.6 °F - 37.4 °F 54% 29.74 in 6.2 mi NNW 21.9 mph - N/A   Partly Cloudy
7:00 PM 53 °F - 36 °F 41% 29.76 in - NNW 26.5 mph - -  
7:00 PM 53.6 °F - 35.6 °F 51% 29.74 in 6.2 mi NNW 26.5 mph - N/A   Partly Cloudy
7:30 PM 53.6 °F - 37.4 °F 54% 29.77 in 5.0 mi NW 20.7 mph - N/A Rain Light Rain Showers
7:44 PM 50.0 °F - 41.0 °F 71% 29.77 in 3.7 mi WNW 23.0 mph - N/A Rain Light Rain Showers
7:50 PM 50.0 °F - 42.8 °F 76% 29.80 in 4.3 mi WNW 23.0 mph 34.5 mph N/A Rain Light Rain Showers
8:00 PM 50.0 °F - 42.8 °F 76% 29.80 in 5.0 mi WNW 19.6 mph - N/A Rain Light Rain Showers
8:30 PM 48.2 °F - 42.8 °F 82% 29.80 in 5.0 mi NW 15.0 mph - N/A Rain Light Rain Showers
9:00 PM 48 °F - 42 °F 71% 29.86 in - WNW 17.3 mph - -   Overcast
9:00 PM 48.2 °F - 41.0 °F 76% 29.83 in 6.2 mi WNW 17.3 mph - N/A Rain Light Rain Showers
9:19 PM 46.4 °F 39.2 °F 39.2 °F 76% 29.83 in 6.2 mi WNW 18.4 mph 29.9 mph N/A Rain Light Rain Showers
9:30 PM 46.4 °F 39.8 °F 39.2 °F 76% 29.86 in 6.2 mi West 16.1 mph - N/A Rain Light Rain
10:00 PM 43 °F - 39 °F 81% 29.89 in - WNW 10.4 mph - -  
10:00 PM 42.8 °F 37.0 °F 39.2 °F 87% 29.86 in 6.2 mi WNW 10.4 mph - N/A Rain Rain
10:30 PM 41.0 °F 34.3 °F 37.4 °F 87% 29.86 in 6.2 mi WNW 11.5 mph - N/A   Scattered Clouds
11:00 PM 41.0 °F 34.7 °F 37.4 °F 87% 29.86 in 6.2 mi North 10.4 mph - N/A   Scattered Clouds
11:30 PM 41.0 °F 32.8 °F 37.4 °F 87% 29.89 in 6.2 mi NW 16.1 mph - N/A   Unknown